Content
SEND FEEDBACK

Daily
Averages
Monthly
Summary
United States of America

MOUNTAIN VILLAGE, ALASKA


Home > North America > United States > Alaska
Elevation: 4 feet     Latitude: 62 07N     Longitude: 163 45W

WEATHER
 
SELECT A DAY
Number of Records: 452,358;   Date Range: 1/1/95 - 7/29/14
 
SHARE

PRINT THIS DATA

[ ← Previous Day ]
WEATHER ALMANAC - JANUARY 23, 2013
[ Next Day → ]
[ °C ]   °F
Weather ElementAverageHighLow
Temperature8.3 °F12.2 °F (12:36 am) (12:56 am)
Dewpoint3.4 °F8.6 °F (12:36 am)-2.2 °F (11:56 pm)
Humidity78.6 %85 % (12:36 am)73 % (10:16 am)
Barometer29.51 in29.57 in (11:36 pm)29.48 in (12:56 am)
Wind Speed14.3 mph26.5 mph (12:56 am)
Wind Gust35.7 mph (1:56 am)
Weather ElementAverage
Visibility10 mi
Wind DirectionENE (79.6 °)

Weather ElementTotal
Precipitation---
Heating Degree Days58.9 (Base 65)
Averaged from 68 records on January 23, 2013
WEATHER CONDITIONS BREAKOUT
WIND DIRECTION BREAKOUT
WEATHER BY HOUR - JANUARY 23, 2013
[ °C ]   °F
Local TimeTemperatureDewpointHumidityBarometerVisibilityWind DirectionWind SpeedGust SpeedPrecipitationEventsConditions
12:36 AM12.2 °F8.6 °F85 %29.50 in10.0 miEast (100°)20.7 mph29.9 mphOvercast
12:56 AM0.0 °F0.0 °F29.48 in7.0 miESE (110°)26.5 mph33.4 mphOvercast
1:16 AM0.0 °F0.0 °F29.48 in10.0 miESE (110°)25.3 mph33.4 mphOvercast
1:36 AM0.0 °F0.0 °F29.48 in10.0 miESE (110°)23.0 mph33.4 mphOvercast
1:56 AM0.0 °F0.0 °F29.48 in10.0 miESE (110°)24.2 mph35.7 mphOvercast
2:16 AM0.0 °F0.0 °F29.48 in10.0 miESE (110°)24.2 mph33.4 mphOvercast
2:36 AM12.2 °F6.8 °F79 %29.49 in10.0 miESE (110°)25.3 mph32.2 mphOvercast
2:56 AM0.0 °F0.0 °F29.49 in10.0 miESE (110°)24.2 mph31.1 mphOvercast
3:36 AM12.2 °F6.8 °F79 %29.50 in10.0 miEast (90°)20.7 mph27.6 mphOvercast
3:56 AM12.2 °F6.8 °F79 %29.48 in10.0 miEast (100°)20.7 mph31.1 mphOvercast
4:16 AM12.2 °F6.8 °F79 %29.48 in10.0 miESE (110°)23.0 mph29.9 mphOvercast
4:36 AM12.2 °F6.8 °F79 %29.48 in10.0 miESE (110°)21.9 mph29.9 mphOvercast
4:56 AM12.2 °F6.8 °F79 %29.48 in10.0 miESE (110°)21.9 mph28.8 mphMostly Cloudy
5:16 AM0.0 °F0.0 °F29.48 in10.0 miESE (110°)19.6 mph28.8 mphOvercast
5:56 AM10.4 °F6.8 °F85 %29.49 in10.0 miEast (100°)19.6 mph26.5 mphMostly Cloudy
6:16 AM10.4 °F6.8 °F85 %29.48 in10.0 miEast (100°)19.6 mph29.9 mphOvercast
6:36 AM10.4 °F6.8 °F85 %29.49 in10.0 miESE (110°)18.4 mph27.6 mphOvercast
6:56 AM10.4 °F6.8 °F85 %29.49 in10.0 miEast (90°)16.1 mph25.3 mphMostly Cloudy
7:16 AM10.4 °F6.8 °F85 %29.49 in10.0 miEast (100°)16.1 mph25.3 mphOvercast
7:36 AM10.4 °F6.8 °F85 %29.49 in10.0 miEast (100°)15.0 mph27.6 mphOvercast
7:56 AM10.4 °F6.8 °F85 %29.50 in10.0 miENE (70°)10.4 mphOvercast
8:16 AM10.4 °F5.0 °F79 %29.50 in10.0 miEast (90°)15.0 mph20.7 mphOvercast
8:36 AM10.4 °F6.8 °F85 %29.49 in10.0 miEast (90°)16.1 mph20.7 mphOvercast
8:56 AM10.4 °F5.0 °F79 %29.50 in10.0 miEast (80°)17.3 mph21.9 mphOvercast
9:16 AM10.4 °F6.8 °F85 %29.50 in10.0 miEast (90°)17.3 mph23.0 mphOvercast
9:36 AM10.4 °F5.0 °F79 %29.50 in10.0 miEast (80°)15.0 mph21.9 mphOvercast
9:56 AM10.4 °F5.0 °F79 %29.51 in10.0 miEast (80°)15.0 mph21.9 mphOvercast
10:16 AM10.4 °F3.2 °F73 %29.50 in10.0 miEast (80°)15.0 mphMostly Cloudy
10:36 AM10.4 °F3.2 °F73 %29.50 in10.0 miEast (80°)15.0 mph20.7 mphPartly Cloudy
11:16 AM8.6 °F3.2 °F79 %29.51 in10.0 miEast (80°)12.7 mph20.7 mphClear
11:36 AM8.6 °F3.2 °F79 %29.51 in10.0 miEast (80°)13.8 mph18.4 mphClear
11:56 AM8.6 °F3.2 °F79 %29.51 in10.0 miEast (80°)9.2 mphClear
12:16 PM8.6 °F3.2 °F79 %29.50 in10.0 miEast (80°)12.7 mph19.6 mphClear
12:36 PM10.4 °F3.2 °F73 %29.51 in10.0 miEast (80°)12.7 mph17.3 mphClear
12:56 PM10.4 °F5.0 °F79 %29.51 in10.0 miEast (80°)11.5 mphClear
1:16 PM10.4 °F3.2 °F73 %29.51 in10.0 miENE (70°)10.4 mphClear
1:36 PM10.4 °F3.2 °F73 %29.50 in10.0 miEast (80°)13.8 mph17.3 mphClear
1:56 PM10.4 °F3.2 °F73 %29.50 in10.0 miEast (80°)15.0 mphClear
2:16 PM12.2 °F5.0 °F73 %29.50 in10.0 miENE (60°)10.4 mph17.3 mphClear
2:36 PM12.2 °F5.0 °F73 %29.50 in10.0 miENE (70°)10.4 mphClear
2:56 PM10.4 °F5.0 °F79 %29.50 in10.0 miNE (50°)10.4 mphClear
3:16 PM10.4 °F3.2 °F73 %29.50 in10.0 miNE (50°)11.5 mphClear
3:36 PM10.4 °F3.2 °F73 %29.50 in10.0 miNE (50°)9.2 mph16.1 mphClear
3:56 PM10.4 °F3.2 °F73 %29.49 in10.0 miENE (60°)13.8 mphClear
4:16 PM10.4 °F3.2 °F73 %29.49 in10.0 miENE (60°)12.7 mphClear
4:36 PM10.4 °F3.2 °F73 %29.49 in10.0 miENE (60°)12.7 mph18.4 mphClear
4:56 PM10.4 °F3.2 °F73 %29.50 in10.0 miENE (70°)12.7 mphClear
5:16 PM10.4 °F5.0 °F79 %29.50 in10.0 miNE (50°)8.1 mphClear
5:36 PM10.4 °F5.0 °F79 %29.50 in10.0 miENE (60°)6.9 mph16.1 mphClear
5:56 PM10.4 °F5.0 °F79 %29.51 in10.0 miENE (60°)9.2 mphClear
6:16 PM10.4 °F3.2 °F73 %29.51 in10.0 miENE (70°)10.4 mphClear
6:36 PM10.4 °F3.2 °F73 %29.51 in10.0 miENE (70°)15.0 mph19.6 mphScattered Clouds
6:56 PM8.6 °F3.2 °F79 %29.52 in10.0 miENE (60°)9.2 mphScattered Clouds
7:16 PM8.6 °F1.4 °F73 %29.52 in10.0 miENE (70°)11.5 mph20.7 mphClear
7:36 PM6.8 °F1.4 °F79 %29.52 in10.0 miNE (50°)8.1 mphClear
7:56 PM6.8 °F1.4 °F79 %29.53 in10.0 miENE (60°)6.9 mphClear
8:16 PM6.8 °F1.4 °F79 %29.53 in10.0 miENE (60°)6.9 mphClear
8:36 PM6.8 °F1.4 °F79 %29.53 in10.0 miENE (60°)10.4 mphPartly Cloudy
8:56 PM5.0 °F1.4 °F85 %29.54 in10.0 miENE (60°)8.1 mphClear
9:16 PM5.0 °F-0.4 °F78 %29.54 in10.0 miENE (60°)8.1 mphClear
9:36 PM5.0 °F1.4 °F85 %29.54 in10.0 miENE (60°)9.2 mphClear
9:56 PM3.2 °F-0.4 °F85 %29.55 in10.0 miENE (60°)8.1 mphClear
10:16 PM5.0 °F-0.4 °F78 %29.55 in10.0 miENE (70°)9.2 mphClear
10:36 PM3.2 °F-0.4 °F85 %29.55 in10.0 miENE (60°)9.2 mphClear
10:56 PM5.0 °F-0.4 °F78 %29.56 in10.0 miENE (70°)10.4 mphClear
11:16 PM5.0 °F-0.4 °F78 %29.56 in10.0 miEast (80°)11.5 mphClear
11:36 PM5.0 °F-0.4 °F78 %29.57 in10.0 miENE (60°)9.2 mphClear
11:56 PM3.2 °F-2.2 °F78 %29.57 in10.0 miEast (80°)9.2 mphClear
Hourly data recorded from PASM, located miles away from Mountain Village, Alaska







STORIES FROM OUR PARTNERS